Farmingdale, NY

6:05 PM EDT on May 26, 2017 (GMT -0400)
Republic

Weather History for KFRG - October, 2012

Change the Weather History Date:

Thursday, October 4, 2012

  Actual Average Record
Temperature  
Mean Temperature 68 °F -  
Max Temperature 71 °F 65 °F 82 °F (2013)
Min Temperature 66 °F 49 °F 41 °F (1996)
Cooling Degree Days 4    
Growing Degree Days 18 (Base 50)    
Moisture  
Dew Point 67 °F    
Average Humidity 99    
Maximum Humidity 100    
Minimum Humidity 88    
Precipitation  
Precipitation 0.02 in - - ()
Sea Level Pressure  
Sea Level Pressure 30.10 in    
Wind  
Wind Speed 1 mph (SE)    
Max Wind Speed 10 mph    
Max Gust Speed -    
Visibility 2 miles    
Events Fog , Rain    
Averages and records for this station are not official NWS values.
T = Trace of Precipitation, MM = Missing Value Source: NWS Daily Summary

Daily Weather History Graph

Daily Weather History Graph

Search for Another Location

Airport or City:

Trip Planner

Search our weather history database for the weather conditions in past years. The results will help you decide how hot, cold, wet, or windy it might be!

Date:

Astronomy

Oct. 04, 2012 Rise Set
Actual Time 6:53 AM EDT 6:30 PM EDT
Civil Twilight 6:26 AM EDT 6:57 PM EDT
Nautical Twilight 5:54 AM EDT 7:28 PM EDT
Astronomical Twilight 5:22 AM EDT 8:00 PM EDT
Moon 9:02 PM EDT (10/4) 11:09 AM EDT (10/4)
Length of Visible Light 12h 30m
Length of Day
11h 36m
Waning Gibbous, 82% of the Moon is Illuminated
Oct 4
Waning Gibbous
Oct 8
Last Quarter
Oct 15
New
Oct 21
First Quarter
Oct 29
Full

Hourly Weather History & Observations

Time (EDT) Temp. Dew Point Humidity Pressure Visibility Wind Dir Wind Speed Gust Speed Precip Events Conditions
12:00 AM 66.2 °F 66.2 °F 100% 30.12 in 0.2 mi Calm Calm - N/A Fog Fog
12:37 AM 66.2 °F 66.2 °F 100% 30.11 in 0.5 mi Calm Calm - N/A Fog Fog
12:48 AM 66.2 °F 66.2 °F 100% 30.11 in 0.2 mi Calm Calm - N/A Fog Fog
12:53 AM 66.0 °F 66.0 °F 100% 30.12 in 0.2 mi Calm Calm - N/A Fog Fog
1:53 AM 66.9 °F 66.9 °F 100% 30.12 in 0.5 mi Calm Calm - N/A Fog Fog
2:14 AM 66.2 °F 66.2 °F 100% 30.12 in 2.0 mi Calm Calm - N/A   Overcast
2:22 AM 66.2 °F 66.2 °F 100% 30.12 in 4.0 mi Calm Calm - N/A   Overcast
2:44 AM 66.2 °F 66.2 °F 100% 30.12 in 3.0 mi Calm Calm - N/A   Overcast
2:53 AM 66.9 °F 66.9 °F 100% 30.12 in 3.0 mi Calm Calm - N/A   Overcast
3:05 AM 66.2 °F 66.2 °F 100% 30.12 in 2.0 mi Calm Calm - N/A   Overcast
3:19 AM 66.2 °F 66.2 °F 100% 30.12 in 3.0 mi Calm Calm - N/A   Overcast
3:34 AM 66.2 °F 66.2 °F 100% 30.12 in 2.0 mi Calm Calm - N/A   Overcast
3:41 AM 66.2 °F 66.2 °F 100% 30.12 in 1.5 mi Calm Calm - N/A   Overcast
3:53 AM 66.9 °F 66.9 °F 100% 30.12 in 1.0 mi Calm Calm - N/A   Overcast
4:53 AM 68.0 °F 68.0 °F 100% 30.12 in 2.0 mi Calm Calm - N/A   Overcast
5:01 AM 66.2 °F 66.2 °F 100% 30.12 in 0.8 mi Calm Calm - N/A   Overcast
5:14 AM 66.2 °F 66.2 °F 100% 30.12 in 0.5 mi Calm Calm - N/A Fog Fog
5:26 AM 66.2 °F 66.2 °F 100% 30.12 in 1.2 mi Calm Calm - N/A   Overcast
5:33 AM 66.2 °F 66.2 °F 100% 30.12 in 1.0 mi Calm Calm - N/A   Overcast
5:53 AM 66.9 °F 66.9 °F 100% 30.12 in 1.5 mi Calm Calm - N/A   Overcast
6:07 AM 66.2 °F 66.2 °F 100% 30.12 in 0.8 mi Calm Calm - N/A   Overcast
6:17 AM 66.2 °F 66.2 °F 100% 30.13 in 0.2 mi Calm Calm - N/A Fog Fog
6:35 AM 66.2 °F 66.2 °F 100% 30.13 in 0.5 mi Calm Calm - N/A Fog Fog
6:53 AM 66.0 °F 66.0 °F 100% 30.12 in 0.5 mi Calm Calm - N/A Fog Fog
7:16 AM 66.2 °F 66.2 °F 100% 30.13 in 1.5 mi Calm Calm - N/A   Mostly Cloudy
7:26 AM 66.2 °F 66.2 °F 100% 30.13 in 2.5 mi Calm Calm - N/A   Mostly Cloudy
7:29 AM 66.2 °F 66.2 °F 100% 30.13 in 2.5 mi Calm Calm - 0.00 in Rain Light Rain
7:31 AM 66.2 °F 66.2 °F 100% 30.13 in 3.0 mi Calm Calm - 0.00 in Rain Light Rain
7:38 AM 66.2 °F 66.2 °F 100% 30.13 in 4.0 mi Calm Calm - 0.00 in Rain Light Rain
7:45 AM 66.2 °F 66.2 °F 100% 30.13 in 2.5 mi Calm Calm - 0.00 in   Partly Cloudy
7:53 AM 66.9 °F 66.9 °F 100% 30.13 in 2.5 mi Calm Calm - 0.00 in   Clear
8:28 AM 68.0 °F 68.0 °F 100% 30.13 in 2.5 mi NE 4.6 mph - N/A   Partly Cloudy
8:49 AM 68.0 °F 68.0 °F 100% 30.12 in 2.5 mi NE 4.6 mph - N/A   Mostly Cloudy
8:53 AM 68.0 °F 68.0 °F 100% 30.13 in 2.5 mi NE 4.6 mph - N/A   Mostly Cloudy
9:31 AM 69.8 °F 68.0 °F 94% 30.13 in 2.5 mi ENE 3.5 mph - N/A   Mostly Cloudy
9:53 AM 69.1 °F 68.0 °F 96% 30.13 in 2.5 mi East 3.5 mph - N/A   Mostly Cloudy
10:50 AM 69.8 °F 68.0 °F 94% 30.13 in 2.5 mi Calm Calm - N/A   Overcast
10:53 AM 70.0 °F 68.0 °F 93% 30.13 in 2.5 mi Calm Calm - N/A   Overcast
11:17 AM 69.8 °F 68.0 °F 94% 30.13 in 2.5 mi Calm Calm - N/A   Overcast
11:53 AM 71.1 °F 68.0 °F 90% 30.12 in 2.5 mi Calm Calm - N/A   Overcast
12:04 PM 71.6 °F 68.0 °F 88% 30.12 in 3.0 mi SW 4.6 mph - N/A   Overcast
12:38 PM 68.0 °F 68.0 °F 100% 30.08 in 3.0 mi ESE 10.4 mph - N/A   Overcast
12:39 PM 68.0 °F 68.0 °F 100% 30.08 in 3.0 mi ESE 9.2 mph - N/A   Overcast
12:44 PM 66.2 °F 66.2 °F 100% 30.10 in 0.8 mi SE 9.2 mph - N/A   Overcast
12:53 PM 66.9 °F 66.9 °F 100% 30.09 in 0.5 mi ESE 6.9 mph - 0.00 in Fog , Rain Light Rain
1:23 PM 66.2 °F 66.2 °F 100% 30.10 in 1.0 mi SSE 5.8 mph - 0.00 in   Overcast
1:41 PM 66.2 °F 66.2 °F 100% 30.09 in 2.0 mi ESE 3.5 mph - 0.00 in   Overcast
1:53 PM 66.9 °F 66.9 °F 100% 30.08 in 2.0 mi ESE 4.6 mph - 0.00 in   Overcast
2:08 PM 66.2 °F 66.2 °F 100% 30.09 in 3.0 mi SSE 3.5 mph - N/A   Overcast
2:19 PM 66.2 °F 66.2 °F 100% 30.09 in 3.0 mi Calm Calm - N/A   Overcast
2:40 PM 68.0 °F 66.2 °F 94% 30.09 in 2.5 mi SSW 6.9 mph - N/A   Overcast
2:53 PM 68.0 °F 66.9 °F 96% 30.08 in 2.5 mi SSE 6.9 mph - N/A   Overcast
3:00 PM 68.0 °F 66.2 °F 94% 30.08 in 4.0 mi SSE 6.9 mph - N/A   Overcast
3:53 PM 68.0 °F 66.9 °F 96% 30.07 in 6.0 mi South 5.8 mph - N/A   Overcast
4:53 PM 68.0 °F 66.9 °F 96% 30.06 in 3.0 mi South 6.9 mph - N/A   Overcast
6:11 PM 68.0 °F 66.2 °F 94% 30.05 in 3.0 mi SSE 6.9 mph - N/A   Overcast
6:53 PM 66.9 °F 66.9 °F 100% 30.04 in 3.0 mi South 4.6 mph - N/A   Overcast
7:53 PM 66.9 °F 66.9 °F 100% 30.05 in 3.0 mi SW 3.5 mph - 0.02 in   Mostly Cloudy
8:53 PM 66.9 °F 66.9 °F 100% 30.05 in 3.0 mi Calm Calm - N/A   Overcast
9:29 PM 66.2 °F 66.2 °F 100% 30.05 in 2.0 mi Calm Calm - N/A   Mostly Cloudy
9:53 PM 66.0 °F 66.0 °F 100% 30.05 in 2.0 mi Calm Calm - N/A   Mostly Cloudy
10:04 PM 66.2 °F 66.2 °F 100% 30.05 in 3.0 mi Calm Calm - N/A   Overcast
10:18 PM 66.2 °F 66.2 °F 100% 30.06 in 2.5 mi Calm Calm - N/A   Overcast
10:42 PM 66.2 °F 66.2 °F 100% 30.06 in 1.8 mi Calm Calm - N/A   Overcast
10:53 PM 66.0 °F 66.0 °F 100% 30.06 in 2.0 mi Calm Calm - N/A   Overcast
11:12 PM 66.2 °F 66.2 °F 100% 30.06 in 1.5 mi Calm Calm - N/A   Overcast
11:26 PM 66.2 °F 66.2 °F 100% 30.06 in 2.0 mi Calm Calm - N/A   Mostly Cloudy
11:33 PM 66.2 °F 66.2 °F 100% 30.06 in 3.0 mi Calm Calm - N/A   Scattered Clouds
11:53 PM 66.0 °F 64.9 °F 96% 30.05 in 4.0 mi North 3.5 mph - N/A   Clear